• In Hungary
  • List of Countries
  • For 7 days
  • Water Temperature
  • Satellite Maps
  • Weather Map
  • News
  • Weather Widgets
  • user-avatar
    Login

    Hourly Weather Innsbruck

    Today, 24 September, Sunday

    Time Temperature Precipitation Wind Pressure Humidity
    00:00 +3°C° 0.1 mm 1 mps 597 mmHg 95%
    01:00 +4°C° 0 mm 1 mps 597 mmHg 94%
    02:00 +4°C° 0.5 mm 1 mps 597 mmHg 94%
    03:00 +4°C° 0.5 mm 1 mps 597 mmHg 94%
    04:00 +4°C° 0.5 mm 1 mps 597 mmHg 93%
    05:00 +4°C° 0.5 mm 1 mps 597 mmHg 93%
    06:00 +4°C° 0.5 mm 1 mps 597 mmHg 93%
    07:00 +3°C° 0.5 mm 1 mps 597 mmHg 93%
    08:00 +4°C° 0.3 mm 1 mps 598 mmHg 89%
    09:00 +5°C° 0.3 mm 1 mps 598 mmHg 85%
    10:00 +7°C° 0.3 mm 1 mps 599 mmHg 81%
    11:00 +7°C° 0.2 mm 1 mps 599 mmHg 77%
    12:00 +7°C° 0.2 mm 2 mps 599 mmHg 73%
    13:00 +8°C° 0.2 mm 2 mps 599 mmHg 70%
    14:00 +7°C° 0.2 mm 2 mps 599 mmHg 71%
    15:00 +7°C° 0.2 mm 2 mps 599 mmHg 72%
    16:00 +7°C° 0.2 mm 2 mps 599 mmHg 73%
    17:00 +6°C° 0.1 mm 1 mps 598 mmHg 79%
    18:00 +5°C° 0.1 mm 1 mps 598 mmHg 86%
    19:00 +3°C° 0.1 mm 1 mps 597 mmHg 92%
    20:00 +3°C° 0 mm 1 mps 597 mmHg 93%
    21:00 +2°C° 0 mm 1 mps 597 mmHg 93%
    22:00 +2°C° 0 mm 1 mps 597 mmHg 94%
    23:00 +2°C° 0 mm 1 mps 597 mmHg 94%

    Tomorrow, 25 September, Monday

    Time Temperature Precipitation Wind Pressure Humidity
    00:00 +1°C° 0 mm 1 mps 597 mmHg 94%
    01:00 +1°C° 0 mm 1 mps 596 mmHg 94%
    02:00 0°C° 0 mm 1 mps 596 mmHg 93%
    03:00 0°C° 0 mm 1 mps 596 mmHg 92%
    04:00 0°C° 0 mm 1 mps 595 mmHg 91%
    05:00 0°C° 0 mm 1 mps 596 mmHg 89%
    06:00 0°C° 0 mm 1 mps 596 mmHg 87%
    07:00 +1°C° 0 mm 1 mps 596 mmHg 84%
    08:00 +3°C° 0 mm 1 mps 597 mmHg 75%
    09:00 +5°C° 0 mm 0 mps 598 mmHg 65%
    10:00 +8°C° 0 mm 0 mps 599 mmHg 56%
    11:00 +8°C° 0 mm 0 mps 599 mmHg 53%
    12:00 +10°C° 0 mm 1 mps 599 mmHg 50%
    13:00 +11°C° 0 mm 1 mps 599 mmHg 47%
    14:00 +11°C° 0 mm 1 mps 599 mmHg 49%
    15:00 +10°C° 0 mm 1 mps 599 mmHg 51%
    16:00 +10°C° 0 mm 1 mps 599 mmHg 53%
    17:00 +7°C° 0 mm 1 mps 598 mmHg 63%
    18:00 +5°C° 0 mm 1 mps 597 mmHg 73%
    19:00 +1°C° 0 mm 0 mps 596 mmHg 83%
    20:00 +2°C° 0 mm 1 mps 596 mmHg 84%
    21:00 +2°C° 0 mm 1 mps 596 mmHg 85%
    22:00 +2°C° 0 mm 1 mps 596 mmHg 85%
    23:00 +2°C° 0 mm 1 mps 597 mmHg 85%

    Day after tomorrow, 26 September, Tuesday

    Time Temperature Precipitation Wind Pressure Humidity
    00:00 +2°C° 0 mm 1 mps 597 mmHg 85%
    01:00 +2°C° 0 mm 1 mps 597 mmHg 85%
    02:00 +2°C° 0 mm 1 mps 597 mmHg 86%
    03:00 +2°C° 0 mm 1 mps 597 mmHg 86%
    04:00 +2°C° 0 mm 1 mps 597 mmHg 87%
    05:00 +3°C° 0 mm 1 mps 597 mmHg 86%
    06:00 +3°C° 0 mm 1 mps 597 mmHg 86%
    07:00 +3°C° 0 mm 1 mps 598 mmHg 85%
    08:00 +5°C° 0 mm 1 mps 599 mmHg 78%
    09:00 +7°C° 0 mm 1 mps 599 mmHg 70%
    10:00 +9°C° 0 mm 1 mps 600 mmHg 62%
    11:00 +10°C° 0 mm 1 mps 601 mmHg 60%
    12:00 +10°C° 0 mm 1 mps 601 mmHg 59%
    13:00 +11°C° 0 mm 1 mps 601 mmHg 57%
    14:00 +10°C° 0.1 mm 1 mps 601 mmHg 61%
    15:00 +10°C° 0.1 mm 1 mps 601 mmHg 66%
    16:00 +9°C° 0.1 mm 1 mps 600 mmHg 70%
    17:00 +7°C° 0.1 mm 1 mps 600 mmHg 77%
    18:00 +5°C° 0.1 mm 1 mps 599 mmHg 85%
    19:00 +2°C° 0.1 mm 0 mps 598 mmHg 92%
    20:00 +3°C° 0 mm 1 mps 598 mmHg 92%
    21:00 +3°C° 0 mm 1 mps 599 mmHg 92%
    22:00 +2°C° 0 mm 1 mps 599 mmHg 92%
    23:00 +2°C° 0 mm 1 mps 599 mmHg 91%

    27 September, Wednesday

    Time Temperature Precipitation Wind Pressure Humidity
    00:00 +2°C° 0 mm 1 mps 599 mmHg 90%
    01:00 +2°C° 0 mm 1 mps 599 mmHg 89%
    02:00 +2°C° 0 mm 1 mps 598 mmHg 89%
    03:00 +1°C° 0 mm 1 mps 598 mmHg 88%
    04:00 +1°C° 0 mm 1 mps 598 mmHg 87%
    05:00 +1°C° 0 mm 1 mps 599 mmHg 86%
    06:00 +2°C° 0 mm 1 mps 599 mmHg 85%
    07:00 +2°C° 0 mm 1 mps 599 mmHg 83%
    08:00 +5°C° 0 mm 1 mps 600 mmHg 76%
    09:00 +7°C° 0 mm 1 mps 602 mmHg 68%
    10:00 +10°C° 0 mm 1 mps 603 mmHg 61%
    11:00 +11°C° 0 mm 1 mps 603 mmHg 59%
    12:00 +11°C° 0 mm 1 mps 603 mmHg 57%
    13:00 +12°C° 0 mm 1 mps 603 mmHg 55%
    14:00 +12°C° 0 mm 1 mps 603 mmHg 58%
    15:00 +11°C° 0 mm 1 mps 603 mmHg 61%
    16:00 +11°C° 0 mm 1 mps 602 mmHg 64%
    17:00 +8°C° 0 mm 1 mps 602 mmHg 72%
    18:00 +6°C° 0 mm 1 mps 601 mmHg 81%
    19:00 +3°C° 0 mm 0 mps 600 mmHg 89%
    20:00 +3°C° 0 mm 1 mps 600 mmHg 89%
    21:00 +3°C° 0 mm 1 mps 600 mmHg 89%
    22:00 +3°C° 0 mm 1 mps 600 mmHg 88%
    23:00 +3°C° 0 mm 1 mps 600 mmHg 88%

    28 September, Thursday

    Time Temperature Precipitation Wind Pressure Humidity
    00:00 +3°C° 0 mm 1 mps 600 mmHg 87%
    01:00 +2°C° 0 mm 1 mps 600 mmHg 87%
    02:00 +2°C° 0 mm 1 mps 600 mmHg 87%
    03:00 +2°C° 0 mm 1 mps 600 mmHg 87%
    04:00 +2°C° 0 mm 1 mps 600 mmHg 87%
    05:00 +2°C° 0 mm 1 mps 600 mmHg 86%
    06:00 +3°C° 0 mm 1 mps 600 mmHg 85%
    07:00 +3°C° 0 mm 1 mps 601 mmHg 84%
    08:00 +6°C° 0 mm 1 mps 602 mmHg 75%
    09:00 +8°C° 0 mm 1 mps 603 mmHg 66%
    10:00 +11°C° 0 mm 1 mps 604 mmHg 57%
    11:00 +12°C° 0 mm 1 mps 604 mmHg 55%
    12:00 +12°C° 0 mm 1 mps 605 mmHg 53%
    13:00 +13°C° 0 mm 1 mps 605 mmHg 51%
    14:00 +12°C° 0 mm 2 mps 604 mmHg 54%
    15:00 +12°C° 0 mm 2 mps 604 mmHg 58%
    16:00 +12°C° 0 mm 2 mps 604 mmHg 61%
    17:00 +9°C° 0 mm 1 mps 603 mmHg 71%
    18:00 +7°C° 0 mm 1 mps 602 mmHg 80%
    19:00 +4°C° 0 mm 1 mps 601 mmHg 90%
    20:00 +4°C° 0 mm 1 mps 601 mmHg 91%
    21:00 +3°C° 0 mm 1 mps 601 mmHg 92%
    22:00 +3°C° 0 mm 1 mps 601 mmHg 93%
    23:00 +3°C° 0 mm 1 mps 601 mmHg 93%

    29 September, Friday

    Time Temperature Precipitation Wind Pressure Humidity
    00:00 +3°C° 0 mm 1 mps 601 mmHg 92%
    01:00 +2°C° 0 mm 1 mps 601 mmHg 91%
    02:00 +2°C° 0 mm 1 mps 601 mmHg 90%
    03:00 +2°C° 0 mm 1 mps 600 mmHg 89%
    04:00 +2°C° 0 mm 1 mps 600 mmHg 88%
    05:00 +2°C° 0 mm 1 mps 600 mmHg 86%
    06:00 +3°C° 0 mm 1 mps 601 mmHg 84%
    07:00 +3°C° 0 mm 1 mps 601 mmHg 82%
    08:00 +6°C° 0 mm 1 mps 602 mmHg 71%
    09:00 +9°C° 0 mm 1 mps 603 mmHg 61%
    10:00 +11°C° 0 mm 0 mps 604 mmHg 50%
    11:00 +12°C° 0 mm 1 mps 604 mmHg 49%
    12:00 +13°C° 0 mm 1 mps 604 mmHg 47%
    13:00 +13°C° 0 mm 1 mps 604 mmHg 45%
    14:00 +13°C° 0 mm 1 mps 604 mmHg 48%
    15:00 +13°C° 0 mm 1 mps 603 mmHg 51%
    16:00 +12°C° 0 mm 1 mps 603 mmHg 54%
    17:00 +9°C° 0 mm 1 mps 601 mmHg 65%
    18:00 +7°C° 0 mm 1 mps 600 mmHg 76%
    19:00 +3°C° 0 mm 0 mps 599 mmHg 87%
    20:00 +4°C° 0 mm 1 mps 599 mmHg 87%
    21:00 +4°C° 0 mm 1 mps 599 mmHg 88%
    22:00 +3°C° 0 mm 1 mps 599 mmHg 88%
    23:00 +3°C° 0 mm 1 mps 599 mmHg 87%
    Show more